Rotterdam — PDGS — position and weather

sailwx.info

Track history (hours):
 
Tides and Currents Weather Stations Pressure Air Temp Water Temp Dewpoint Dewpoint Depression Visibility Wind Speed Wind Dir Waves Ship Positions

Rotterdam

Operator: Holland America Line

Last reported at 2019-Jul-18 10:09 UTC. Time now 2019-Jul-19 19:06 UTC.
Position N 66°35' E 006°13'.

Length 228 m; beam 29 m.

Type: Ship. MMSI: 24616700.

Date/timePositionNaut miles runAvg speedWind from/ knotsBaromVisibWave heightAir tempDewpointWater temp
2019-Jul-18 10:09N 66°35' E 006°13'317.9
2019-Jul-18 09:59N 66°32' E 006°13'1117.8
2019-Jul-18 09:22N 66°21' E 006°13'717.8
2019-Jul-18 09:00N 66°14' E 006°12'917.7
2019-Jul-18 08:30N 66°05' E 006°11'917.5
2019-Jul-18 07:59N 65°56' E 006°10'917.5
2019-Jul-18 07:30N 65°48' E 006°09'917.7
2019-Jul-18 07:00N 65°39' E 006°08'1117.8
2019-Jul-18 06:23N 65°28' E 006°07'818.1
2019-Jul-18 05:58N 65°20' E 006°06'1018.0
2019-Jul-18 05:25N 65°11' E 006°05'717.9
2019-Jul-18 05:00N 65°03' E 006°04'918.0
2019-Jul-18 04:29N 64°54' E 006°03'1018.0
2019-Jul-18 03:57N 64°44' E 006°03'818.2
2019-Jul-18 03:31N 64°36' E 006°02'918.2
2019-Jul-18 02:59N 64°27' E 006°01'918.4
2019-Jul-18 02:30N 64°18' E 005°60'918.3
2019-Jul-18 01:59N 64°08' E 005°59'918.5
2019-Jul-18 01:30N 63°59' E 005°58'918.5
2019-Jul-18 01:00N 63°50' E 005°57'918.4
2019-Jul-18 00:30N 63°41' E 005°56'918.2
2019-Jul-18 00:00N 63°32' E 005°55'918.1
2019-Jul-17 23:30N 63°23' E 005°52'918.0
2019-Jul-17 23:00N 63°14' E 005°49'918.2
2019-Jul-17 22:31N 63°05' E 005°47'918.1
2019-Jul-17 22:00N 62°56' E 005°44'917.8
2019-Jul-17 21:29N 62°47' E 005°41'817.5
2019-Jul-17 21:01N 62°39' E 005°39'816.3
2019-Jul-17 20:30N 62°30' E 005°42'917.9
2019-Jul-17 20:00N 62°27' E 006°00'5 9.5
2019-Jul-17 19:30N 62°28' E 006°10'0 0.9
2019-Jul-17 19:00N 62°28' E 006°09'0 0.0
2019-Jul-17 18:31N 62°28' E 006°09'0 0.0
2019-Jul-17 18:00N 62°28' E 006°09'0 0.0
2019-Jul-17 17:30N 62°28' E 006°09'0 0.0
2019-Jul-17 17:00N 62°28' E 006°09'0 0.0
2019-Jul-17 16:30N 62°28' E 006°09'0 0.0
2019-Jul-17 16:00N 62°28' E 006°09'0 0.0
2019-Jul-17 15:30N 62°28' E 006°09'0 0.0
2019-Jul-17 15:00N 62°28' E 006°09'0 0.0
2019-Jul-17 14:30N 62°28' E 006°09'0 0.0
2019-Jul-17 14:00N 62°28' E 006°09'0 0.0
2019-Jul-17 13:30N 62°28' E 006°09'0 0.0
2019-Jul-17 13:00N 62°28' E 006°09'0 0.0
2019-Jul-17 12:30N 62°28' E 006°09'0 0.0
2019-Jul-17 12:00N 62°28' E 006°09'0 0.0
2019-Jul-17 11:30N 62°28' E 006°09'0 0.0
2019-Jul-17 11:00N 62°28' E 006°09'0 0.0
2019-Jul-17 10:30N 62°28' E 006°09'0 0.0
2019-Jul-17 10:00N 62°28' E 006°09'0 0.0
2019-Jul-17 09:30N 62°28' E 006°09'0 0.0
2019-Jul-17 09:00N 62°28' E 006°09'0 0.0
2019-Jul-17 08:30N 62°28' E 006°09'0 0.0
2019-Jul-17 08:00N 62°28' E 006°09'0 0.0
2019-Jul-17 07:30N 62°28' E 006°09'0 0.7
2019-Jul-17 07:00N 62°28' E 006°09'3 5.8
2019-Jul-17 06:30N 62°27' E 006°04'612.6
2019-Jul-17 06:00N 62°28' E 005°50'715.2
2019-Jul-17 05:30N 62°32' E 005°36'816.2
2019-Jul-17 05:00N 62°29' E 005°19'816.4
2019-Jul-17 04:30N 62°26' E 005°03'816.7
2019-Jul-17 04:00N 62°22' E 004°46'916.9
2019-Jul-17 03:30N 62°16' E 004°34'917.0
2019-Jul-17 03:00N 62°09' E 004°23'816.7
2019-Jul-17 02:30N 62°02' E 004°14'816.6
2019-Jul-17 02:00N 61°54' E 004°11'917.2
2019-Jul-17 01:30N 61°45' E 004°11'917.4
2019-Jul-17 00:59N 61°37' E 004°10'917.7
2019-Jul-17 00:30N 61°28' E 004°09'917.6
2019-Jul-17 00:00N 61°19' E 004°09'917.6
2019-Jul-16 23:30N 61°10' E 004°08'917.6
2019-Jul-16 23:00N 61°02' E 004°08'917.3
2019-Jul-16 22:30N 60°53' E 004°08'917.3
2019-Jul-16 22:00N 60°44' E 004°08'917.7
2019-Jul-16 21:30N 60°35' E 004°08'918.1
2019-Jul-16 21:00N 60°26' E 004°09'917.8
2019-Jul-16 20:30N 60°18' E 004°10'917.8
2019-Jul-16 20:00N 60°09' E 004°11'918.1
2019-Jul-16 19:30N 59°60' E 004°11'918.3
2019-Jul-16 19:00N 59°50' E 004°11'918.3
2019-Jul-16 18:30N 59°41' E 004°11'918.3
2019-Jul-16 18:00N 59°32' E 004°11'917.6
2019-Jul-16 17:30N 59°23' E 004°11'917.6
2019-Jul-16 17:00N 59°14' E 004°11'917.5
2019-Jul-16 16:30N 59°06' E 004°11'917.6
2019-Jul-16 15:59N 58°57' E 004°12'817.4
2019-Jul-16 15:30N 58°49' E 004°16'917.9
2019-Jul-16 15:00N 58°40' E 004°22'917.8
2019-Jul-16 14:30N 58°32' E 004°27'917.5
2019-Jul-16 14:00N 58°23' E 004°32'917.3
2019-Jul-16 13:28N 58°15' E 004°37'817.2
2019-Jul-16 13:00N 58°07' E 004°42'1019.4
2019-Jul-16 12:30N 57°58' E 004°47'1020.1
2019-Jul-16 12:00N 57°48' E 004°53'919.3
2019-Jul-16 11:30N 57°39' E 004°59'1019.8
2019-Jul-16 11:00N 57°29' E 005°04'1019.9
2019-Jul-16 10:30N 57°20' E 005°10'1119.9
2019-Jul-16 09:58N 57°10' E 005°15'920.0
2019-Jul-16 09:30N 57°01' E 005°20'1020.1
2019-Jul-16 09:00N 56°51' E 005°25'1020.2
2019-Jul-16 08:30N 56°41' E 005°30'1020.3
2019-Jul-16 08:00N 56°31' E 005°31'1020.3
2019-Jul-16 07:30N 56°21' E 005°32'1020.3
2019-Jul-16 06:59N 56°11' E 005°33'1020.3
2019-Jul-16 06:30N 56°01' E 005°34'1020.3
2019-Jul-16 06:00N 55°50' E 005°35'1020.3
2019-Jul-16 05:30N 55°40' E 005°36'1020.2
2019-Jul-16 05:00N 55°30' E 005°36'1020.1
2019-Jul-16 04:30N 55°20' E 005°33'1020.1
2019-Jul-16 04:00N 55°10' E 005°30'1020.2
2019-Jul-16 03:29N 55°00' E 005°28'1020.2
2019-Jul-16 02:59N 54°50' E 005°26'8219.9
2019-Jul-15 22:51N 53°31' E 004°48'513.3
2019-Jul-15 22:30N 53°27' E 004°44'1417.2
2019-Jul-15 21:42N 53°15' E 004°33'519.4
2019-Jul-15 21:25N 53°10' E 004°30'819.3
2019-Jul-15 21:00N 53°03' E 004°23'918.9
2019-Jul-15 20:30N 52°54' E 004°17'917.3
2019-Jul-15 20:00N 52°46' E 004°10'815.7
2019-Jul-15 19:30N 52°39' E 004°07'714.5
2019-Jul-15 19:00N 52°32' E 004°11'816.5
2019-Jul-15 18:30N 52°29' E 004°23'612.6
2019-Jul-15 18:01N 52°28' E 004°33'2 3.7
2019-Jul-15 17:31N 52°28' E 004°37'1 1.9
2019-Jul-15 17:00N 52°28' E 004°38'4 7.2
2019-Jul-15 16:30N 52°26' E 004°43'4 7.3
2019-Jul-15 16:00N 52°25' E 004°49'3 6.6
2019-Jul-15 15:30N 52°24' E 004°54'1 2.3
2019-Jul-15 15:00N 52°23' E 004°55'0 0.1
2019-Jul-15 14:29N 52°23' E 004°55'0 0.0
2019-Jul-15 13:59N 52°23' E 004°55'0 0.0
2019-Jul-15 13:29N 52°23' E 004°55'0 0.0
2019-Jul-15 12:59N 52°23' E 004°55'0 0.0
2019-Jul-15 12:29N 52°23' E 004°55'0 0.0
2019-Jul-15 11:59N 52°23' E 004°55'0 0.0
2019-Jul-15 11:29N 52°23' E 004°55'0 0.0
2019-Jul-15 10:59N 52°23' E 004°55'0 0.0
2019-Jul-15 10:29N 52°23' E 004°55'0 0.0
2019-Jul-15 09:59N 52°23' E 004°55'0 0.0
2019-Jul-15 09:29N 52°23' E 004°55'0 0.0
2019-Jul-15 08:59N 52°23' E 004°55'0 0.0
2019-Jul-15 08:29N 52°23' E 004°55'0 0.0
2019-Jul-15 07:59N 52°23' E 004°55'0 0.0
2019-Jul-15 07:29N 52°23' E 004°55'0 0.0
2019-Jul-15 06:59N 52°23' E 004°55'0 0.0
2019-Jul-15 06:29N 52°23' E 004°55'0 0.0
2019-Jul-15 05:59N 52°23' E 004°55'0 0.0
2019-Jul-15 05:29N 52°23' E 004°55'0 0.0
2019-Jul-15 04:59N 52°23' E 004°55'0 0.0
2019-Jul-15 04:29N 52°23' E 004°55'0 0.2
2019-Jul-15 04:01N 52°23' E 004°55'0 0.1
2019-Jul-15 03:31N 52°23' E 004°55'2 4.9
2019-Jul-15 03:01N 52°25' E 004°52'3 5.9
2019-Jul-15 02:31N 52°25' E 004°48'4 7.2
2019-Jul-15 02:01N 52°26' E 004°42'3 6.8
2019-Jul-15 01:30N 52°28' E 004°37'0 0.6
2019-Jul-15 01:01N 52°28' E 004°37'2 3.9
2019-Jul-15 00:30N 52°28' E 004°33'510.9
2019-Jul-15 00:00N 52°29' E 004°24'816.0
2019-Jul-14 23:30N 52°29' E 004°11'816.8
2019-Jul-14 23:00N 52°36' E 004°04'1320.7
2019-Jul-14 22:24N 52°48' E 003°57'821.0
2019-Jul-14 22:00N 52°56' E 003°60'1121.2
2019-Jul-14 21:30N 53°04' E 004°12'1121.6
2019-Jul-14 21:00N 53°12' E 004°24'1121.7
2019-Jul-14 20:30N 53°22' E 004°30'1221.4
2019-Jul-14 19:58N 53°33' E 004°37'1121.9
2019-Jul-14 19:27N 53°43' E 004°43'1822.5
2019-Jul-14 18:39N 53°60' E 004°56'1022.4
2019-Jul-14 18:13N 54°09' E 005°02'622.3
2019-Jul-14 17:57N 54°14' E 005°08'1322.4
2019-Jul-14 17:22N 54°24' E 005°20'822.4
2019-Jul-14 16:59N 54°32' E 005°28'1122.6
2019-Jul-14 16:30N 54°41' E 005°38'1020.9
2019-Jul-14 16:00N 54°50' E 005°46'1120.7
2019-Jul-14 15:30N 54°60' E 005°55'1020.8
2019-Jul-14 15:00N 55°09' E 006°02'1020.7
2019-Jul-14 14:30N 55°18' E 006°10'1020.6
2019-Jul-14 13:59N 55°28' E 006°19'1020.6
2019-Jul-14 13:30N 55°36' E 006°27'1020.6
2019-Jul-14 13:00N 55°46' E 006°36'1020.6
2019-Jul-14 12:30N 55°55' E 006°44'1020.6
2019-Jul-14 12:00N 56°04' E 006°52'1020.5
2019-Jul-14 11:30N 56°13' E 006°59'1120.6
2019-Jul-14 11:00N 56°22' E 007°10'1020.7
2019-Jul-14 10:29N 56°31' E 007°19'1020.8
2019-Jul-14 09:59N 56°40' E 007°27'1020.9
2019-Jul-14 09:30N 56°49' E 007°37'1021.1
2019-Jul-14 09:00N 56°58' E 007°47'1020.8
2019-Jul-14 08:30N 57°07' E 007°56'1020.1
2019-Jul-14 08:00N 57°15' E 008°08'1020.1
2019-Jul-14 07:30N 57°22' E 008°21'1020.5
2019-Jul-14 07:00N 57°27' E 008°37'1020.3
2019-Jul-14 06:30N 57°33' E 008°54'1020.4
2019-Jul-14 06:00N 57°38' E 009°10'1020.3
2019-Jul-14 05:30N 57°43' E 009°26'1020.4
2019-Jul-14 05:00N 57°47' E 009°44'1020.4
2019-Jul-14 04:30N 57°51' E 010°01'1020.8
2019-Jul-14 04:00N 57°51' E 010°21'1020.3
2019-Jul-14 03:30N 57°51' E 010°40'1019.0
2019-Jul-14 03:00N 57°46' E 010°55'1020.1
2019-Jul-14 02:30N 57°39' E 011°08'1020.5
2019-Jul-14 02:00N 57°32' E 011°23'1020.3
2019-Jul-14 01:30N 57°23' E 011°32'1121.1
2019-Jul-14 01:00N 57°13' E 011°38'1020.5
2019-Jul-14 00:30N 57°03' E 011°45'1121.2
2019-Jul-14 00:00N 56°53' E 011°50'1020.1
2019-Jul-13 23:30N 56°44' E 011°57'1020.0
2019-Jul-13 23:00N 56°34' E 012°00'816.3
2019-Jul-13 22:30N 56°26' E 012°01'1019.2
2019-Jul-13 22:00N 56°17' E 012°09'1020.2
2019-Jul-13 21:30N 56°12' E 012°24'1020.1
2019-Jul-13 21:01N 56°05' E 012°37'816.8
2019-Jul-13 20:31N 55°57' E 012°43'816.5
2019-Jul-13 20:00N 55°49' E 012°44'713.4
2019-Jul-13 19:30N 55°43' E 012°38'1 2.9
2019-Jul-13 19:00N 55°42' E 012°36'0 0.0
2019-Jul-13 18:30N 55°42' E 012°36'0 0.0
2019-Jul-13 18:00N 55°42' E 012°36'0 0.0
2019-Jul-13 17:30N 55°42' E 012°36'0 0.0
2019-Jul-13 17:00N 55°42' E 012°36'0 0.0
2019-Jul-13 16:30N 55°42' E 012°36'0 0.0
2019-Jul-13 16:00N 55°42' E 012°36'0 0.0
2019-Jul-13 15:30N 55°42' E 012°36'0 0.0
2019-Jul-13 15:00N 55°42' E 012°36'0 0.0
2019-Jul-13 14:30N 55°42' E 012°36'0 0.0
2019-Jul-13 14:00N 55°42' E 012°36'0 0.0
2019-Jul-13 13:30N 55°42' E 012°36'0 0.0
2019-Jul-13 13:00N 55°42' E 012°36'0 0.0
2019-Jul-13 12:30N 55°42' E 012°36'0 0.0
2019-Jul-13 12:00N 55°42' E 012°36'0 0.0
2019-Jul-13 11:30N 55°42' E 012°36'0 0.0
2019-Jul-13 11:00N 55°42' E 012°36'0 0.0
2019-Jul-13 10:30N 55°42' E 012°36'0 0.0
2019-Jul-13 10:00N 55°42' E 012°36'0 0.0
2019-Jul-13 09:30N 55°42' E 012°36'0 0.0
2019-Jul-13 09:00N 55°42' E 012°36'0 0.0
2019-Jul-13 08:30N 55°42' E 012°36'0 0.0
2019-Jul-13 08:00N 55°42' E 012°36'0 0.0
2019-Jul-13 07:30N 55°42' E 012°36'0 0.0
2019-Jul-13 07:00N 55°42' E 012°36'0 0.0
2019-Jul-13 06:30N 55°42' E 012°36'0 0.0
2019-Jul-13 06:00N 55°42' E 012°36'0 0.0
2019-Jul-13 05:30N 55°42' E 012°36'0 0.8
2019-Jul-13 05:00N 55°42' E 012°36'5 9.5
2019-Jul-13 04:31N 55°46' E 012°42'611.4
2019-Jul-13 04:01N 55°52' E 012°41'612.6
2019-Jul-13 03:30N 55°58' E 012°40'714.1
2019-Jul-13 03:00N 56°05' E 012°36'714.2
2019-Jul-13 02:30N 56°09' E 012°25'714.9
2019-Jul-13 02:01N 56°13' E 012°15'815.3
2019-Jul-13 01:30N 56°18' E 012°04'815.2
2019-Jul-13 01:00N 56°22' E 011°52'715.1
2019-Jul-13 00:31N 56°21' E 011°39'715.0
2019-Jul-13 00:01N 56°18' E 011°26'815.7
2019-Jul-12 23:30N 56°12' E 011°18'815.6
2019-Jul-12 23:00N 56°06' E 011°10'1418.0
2019-Jul-12 22:12N 55°54' E 010°56'1717.0
2019-Jul-12 21:13N 55°38' E 010°49'418.2
2019-Jul-12 20:59N 55°33' E 010°52'817.5
2019-Jul-12 20:31N 55°26' E 010°59'917.4
2019-Jul-12 20:00N 55°18' E 011°03'816.8
2019-Jul-12 19:30N 55°09' E 011°04'918.1
2019-Jul-12 19:01N 55°00' E 011°02'918.1
2019-Jul-12 18:31N 54°53' E 010°54'918.4
2019-Jul-12 18:01N 54°44' E 010°52'917.5
2019-Jul-12 17:31N 54°38' E 011°04'918.9
2019-Jul-12 17:01N 54°34' E 011°19'1121.0
2019-Jul-12 16:31N 54°30' E 011°35'1019.9
2019-Jul-12 16:00N 54°27' E 011°52'1020.1
2019-Jul-12 15:31N 54°26' E 012°09'1019.1
2019-Jul-12 15:00N 54°35' E 012°16'1220.1
2019-Jul-12 14:24N 54°43' E 012°31'820.3
2019-Jul-12 14:00N 54°48' E 012°43'1220.4
2019-Jul-12 13:24N 54°51' E 013°03'1621.2
2019-Jul-12 12:39N 54°56' E 013°29'319.8
2019-Jul-12 12:29N 54°57' E 013°35'919.7
2019-Jul-12 12:00N 55°01' E 013°50'1120.7
2019-Jul-12 11:29N 55°06' E 014°07'1020.9
2019-Jul-12 11:00N 55°14' E 014°17'1120.8
2019-Jul-12 10:29N 55°23' E 014°28'1020.3
2019-Jul-12 10:01N 55°28' E 014°41'1020.6
2019-Jul-12 09:31N 55°33' E 014°58'1020.9
2019-Jul-12 09:01N 55°37' E 015°14'1020.8
2019-Jul-12 08:31N 55°43' E 015°30'1120.7
2019-Jul-12 07:59N 55°49' E 015°47'1420.8
2019-Jul-12 07:19N 55°56' E 016°08'720.9
2019-Jul-12 07:00N 55°59' E 016°18'6520.0
2019-Jul-12 03:47N 56°52' E 017°25'921.5
2019-Jul-12 03:22N 57°00' E 017°30'921.4
2019-Jul-12 02:58N 57°09' E 017°34'1521.5
2019-Jul-12 02:15N 57°24' E 017°36'3521.5
2019-Jul-12 00:37N 57°55' E 018°06'421.6
2019-Jul-12 00:25N 57°58' E 018°10'921.6
2019-Jul-12 00:00N 58°07' E 018°18'1121.6
2019-Jul-11 23:30N 58°16' E 018°28'2821.6
2019-Jul-11 22:14N 58°40' E 018°52'3320.2
2019-Jul-11 20:35N 59°13' E 019°07'220.1
2019-Jul-11 20:29N 59°14' E 019°04'611.8
2019-Jul-11 20:00N 59°16' E 018°54'510.5
2019-Jul-11 19:30N 59°20' E 018°47'2 3.4
2019-Jul-11 18:58N 59°22' E 018°46'4 7.8
2019-Jul-11 18:30N 59°23' E 018°39'5 9.1
2019-Jul-11 18:00N 59°25' E 018°31'3 7.0
2019-Jul-11 17:31N 59°25' E 018°24'4 7.0
2019-Jul-11 17:00N 59°22' E 018°25'4 8.9
2019-Jul-11 16:30N 59°22' E 018°16'4 8.5
2019-Jul-11 16:00N 59°21' E 018°08'0 0.5
2019-Jul-11 15:30N 59°21' E 018°08'0 0.0
2019-Jul-11 14:57N 59°21' E 018°08'0 0.0
2019-Jul-11 14:30N 59°21' E 018°08'0 0.0
2019-Jul-11 14:00N 59°21' E 018°08'0 0.0
2019-Jul-11 13:30N 59°21' E 018°08'0 0.0
2019-Jul-11 13:00N 59°21' E 018°08'0 0.0
2019-Jul-11 12:30N 59°21' E 018°08'0 0.0
2019-Jul-11 12:00N 59°21' E 018°08'0 0.0
2019-Jul-11 11:30N 59°21' E 018°08'0 0.0
2019-Jul-11 11:00N 59°21' E 018°08'0 0.0
2019-Jul-11 10:30N 59°21' E 018°08'0 0.0
2019-Jul-11 10:00N 59°21' E 018°08'0 0.0
2019-Jul-11 09:30N 59°21' E 018°08'0 0.0
2019-Jul-11 09:00N 59°21' E 018°08'0 0.0
2019-Jul-11 08:30N 59°21' E 018°08'0 0.0
2019-Jul-11 08:00N 59°21' E 018°08'0 0.0
2019-Jul-11 07:30N 59°21' E 018°08'0 0.0
2019-Jul-11 07:00N 59°21' E 018°08'0 0.0
2019-Jul-11 06:30N 59°21' E 018°08'0 0.0
2019-Jul-11 06:00N 59°21' E 018°08'1 2.8
2019-Jul-11 05:30N 59°20' E 018°10'5 9.9
2019-Jul-11 05:00N 59°23' E 018°18'4 8.6
2019-Jul-11 04:30N 59°22' E 018°27'4 8.7
2019-Jul-11 04:00N 59°27' E 018°25'611.5
2019-Jul-11 03:30N 59°23' E 018°34'5 9.6
2019-Jul-11 03:00N 59°22' E 018°43'713.3
2019-Jul-11 02:30N 59°18' E 018°53'4 8.7
2019-Jul-11 02:01N 59°16' E 019°00'611.8
2019-Jul-11 01:30N 59°12' E 019°09'714.7
2019-Jul-11 01:00N 59°11' E 019°23'816.6
2019-Jul-11 00:30N 59°12' E 019°40'1317.9
2019-Jul-10 23:47N 59°15' E 020°04'517.8
2019-Jul-10 23:30N 59°16' E 020°14'1317.3
2019-Jul-10 22:46N 59°16' E 020°39'1117.7
2019-Jul-10 22:09N 59°18' E 020°59'317.9
2019-Jul-10 22:00N 59°19' E 021°04'918.0
2019-Jul-10 21:31N 59°21' E 021°21'918.0
2019-Jul-10 21:00N 59°24' E 021°38'918.0
2019-Jul-10 20:31N 59°26' E 021°56'917.9
2019-Jul-10 20:00N 59°27' E 022°13'917.8
2019-Jul-10 19:31N 59°30' E 022°29'917.7
2019-Jul-10 19:01N 59°33' E 022°46'917.8
2019-Jul-10 18:31N 59°36' E 023°03'917.9
2019-Jul-10 18:01N 59°38' E 023°20'917.9
2019-Jul-10 17:31N 59°40' E 023°37'917.9
2019-Jul-10 17:01N 59°43' E 023°54'917.7
2019-Jul-10 16:31N 59°45' E 024°11'917.5
2019-Jul-10 16:01N 59°48' E 024°27'816.3
2019-Jul-10 15:31N 59°53' E 024°40'917.3
2019-Jul-10 15:00N 59°59' E 024°53'510.9
2019-Jul-10 14:30N 60°04' E 024°53'510.0
2019-Jul-10 14:00N 60°09' E 024°55'0 0.0
2019-Jul-10 13:29N 60°09' E 024°55'0 0.0
2019-Jul-10 12:59N 60°09' E 024°55'0 0.0
2019-Jul-10 12:29N 60°09' E 024°55'0 0.0
2019-Jul-10 11:59N 60°09' E 024°55'0 0.0
2019-Jul-10 11:29N 60°09' E 024°55'0 0.0
2019-Jul-10 10:59N 60°09' E 024°55'0 0.0
2019-Jul-10 10:29N 60°09' E 024°55'0 0.0
2019-Jul-10 09:59N 60°09' E 024°55'0 0.0
2019-Jul-10 09:29N 60°09' E 024°55'0 0.0
2019-Jul-10 08:59N 60°09' E 024°55'0 0.0
2019-Jul-10 08:26N 60°09' E 024°55'0 0.0
2019-Jul-10 07:59N 60°09' E 024°55'0 0.0
2019-Jul-10 07:29N 60°09' E 024°55'0 0.0
2019-Jul-10 06:59N 60°09' E 024°55'0 0.0
2019-Jul-10 06:29N 60°09' E 024°55'0 0.0
2019-Jul-10 05:59N 60°09' E 024°55'0 0.0
2019-Jul-10 05:29N 60°09' E 024°55'0 0.0
2019-Jul-10 04:59N 60°09' E 024°55'0 0.0
2019-Jul-10 04:29N 60°09' E 024°55'0 1.0
2019-Jul-10 04:01N 60°09' E 024°54'3 6.6
2019-Jul-10 03:30N 60°05' E 024°54'612.4
2019-Jul-10 03:00N 59°60' E 024°58'611.9
2019-Jul-10 02:30N 59°55' E 025°06'713.4
2019-Jul-10 02:00N 59°55' E 025°19'714.0
2019-Jul-10 01:30N 59°54' E 025°33'2015.5
2019-Jul-10 00:13N 59°59' E 026°12'315.8
2019-Jul-10 00:00N 59°59' E 026°18'815.1
2019-Jul-09 23:30N 60°01' E 026°33'715.0
2019-Jul-09 23:00N 60°00' E 026°48'815.4
2019-Jul-09 22:30N 59°60' E 027°03'816.5
2019-Jul-09 22:01N 60°04' E 027°17'918.4
2019-Jul-09 21:30N 60°09' E 027°33'917.5
2019-Jul-09 21:00N 60°12' E 027°50'918.3
2019-Jul-09 20:30N 60°09' E 028°07'917.4
2019-Jul-09 20:01N 60°05' E 028°23'917.8
2019-Jul-09 19:30N 60°03' E 028°40'918.2
2019-Jul-09 19:00N 60°02' E 028°58'2414.7
2019-Jul-09 17:23N 59°59' E 029°45'410.0
2019-Jul-09 17:00N 59°57' E 029°52'510.2
2019-Jul-09 16:30N 59°56' E 030°02'5 9.5
2019-Jul-09 16:00N 59°57' E 030°11'0 1.0
2019-Jul-09 15:29N 59°57' E 030°12'0 0.0
2019-Jul-09 14:59N 59°57' E 030°12'0 0.0
2019-Jul-09 14:29N 59°57' E 030°12'0 0.0
2019-Jul-09 13:59N 59°57' E 030°12'0 0.0
2019-Jul-09 13:29N 59°57' E 030°12'0 0.0
2019-Jul-09 12:59N 59°57' E 030°12'0 0.0
2019-Jul-09 12:29N 59°57' E 030°12'0 0.0
2019-Jul-09 11:59N 59°57' E 030°12'0 0.0
2019-Jul-09 11:29N 59°57' E 030°12'0 0.0
2019-Jul-09 10:59N 59°57' E 030°12'0 0.0
2019-Jul-09 10:29N 59°57' E 030°12'0 0.0
2019-Jul-09 09:56N 59°57' E 030°12'0 0.0
2019-Jul-09 09:29N 59°57' E 030°12'0 0.0
2019-Jul-09 08:59N 59°57' E 030°12'0 0.0
2019-Jul-09 08:29N 59°57' E 030°12'0 0.0
2019-Jul-09 07:59N 59°57' E 030°12'0 0.0
2019-Jul-09 07:29N 59°57' E 030°12'0 0.0
2019-Jul-09 06:59N 59°57' E 030°12'0 0.0
2019-Jul-09 06:29N 59°57' E 030°12'0 0.0
2019-Jul-09 05:59N 59°57' E 030°12'0 0.0
2019-Jul-09 05:29N 59°57' E 030°12'0 0.0
2019-Jul-09 04:59N 59°57' E 030°12'0 0.0
2019-Jul-09 04:29N 59°57' E 030°12'0 0.0
2019-Jul-09 03:59N 59°57' E 030°12'0 0.0
2019-Jul-09 03:29N 59°57' E 030°12'0 0.0
2019-Jul-09 02:59N 59°57' E 030°12'0 0.0
2019-Jul-09 02:29N 59°57' E 030°12'0 0.0
2019-Jul-09 01:59N 59°57' E 030°12'0 0.0
2019-Jul-09 01:29N 59°57' E 030°12'0 0.0
2019-Jul-09 00:59N 59°57' E 030°12'0 0.0
2019-Jul-09 00:29N 59°57' E 030°12'0 0.0
2019-Jul-08 23:59N 59°57' E 030°12'0 0.0
2019-Jul-08 23:29N 59°57' E 030°12'0 0.0
2019-Jul-08 22:59N 59°57' E 030°12'0 0.0
2019-Jul-08 22:29N 59°57' E 030°12'0 0.0
2019-Jul-08 21:59N 59°57' E 030°12'0 0.0
2019-Jul-08 21:29N 59°57' E 030°12'0 0.0
2019-Jul-08 20:59N 59°57' E 030°12'0 0.0
2019-Jul-08 20:29N 59°57' E 030°12'0 0.0
2019-Jul-08 19:59N 59°57' E 030°12'0 0.0
2019-Jul-08 19:29N 59°57' E 030°12'0 0.0
2019-Jul-08 18:59N 59°57' E 030°12'0 0.0
2019-Jul-08 18:29N 59°57' E 030°12'0 0.0
2019-Jul-08 17:59N 59°57' E 030°12'0 0.0
2019-Jul-08 17:29N 59°57' E 030°12'0 0.0
2019-Jul-08 16:59N 59°57' E 030°12'0 0.0
2019-Jul-08 16:29N 59°57' E 030°12'0 0.0
2019-Jul-08 15:59N 59°57' E 030°12'0 0.0
2019-Jul-08 15:29N 59°57' E 030°12'0 0.0
2019-Jul-08 14:59N 59°57' E 030°12'0 0.0
2019-Jul-08 14:29N 59°57' E 030°12'0 0.0
2019-Jul-08 13:59N 59°57' E 030°12'0 0.0
2019-Jul-08 13:29N 59°57' E 030°12'0 0.0
2019-Jul-08 12:59N 59°57' E 030°12'0 0.0
2019-Jul-08 12:29N 59°57' E 030°12'0 0.0
2019-Jul-08 11:59N 59°57' E 030°12'0 0.0
2019-Jul-08 11:29N 59°57' E 030°12'0 0.0
2019-Jul-08 10:59N 59°57' E 030°12'0 0.0
2019-Jul-08 10:29N 59°57' E 030°12'  
Track history (hours):
 
Tides and Currents Weather Stations Pressure Air Temp Water Temp Dewpoint Dewpoint Depression Visibility Wind Speed Wind Dir Waves Ship Positions

Rotterdam

Operator: Holland America Line

Last reported at 2019-Jul-18 10:09 UTC. Time now 2019-Jul-19 19:06 UTC.
Position N 66°35' E 006°13'.

Length 228 m; beam 29 m.

Type: Ship. MMSI: 24616700.

Date/timePositionNaut miles runAvg speedWind from/ knotsBaromVisibWave heightAir tempDewpointWater temp
2019-Jul-18 10:09N 66°35' E 006°13'317.9
2019-Jul-18 09:59N 66°32' E 006°13'1117.8
2019-Jul-18 09:22N 66°21' E 006°13'717.8
2019-Jul-18 09:00N 66°14' E 006°12'917.7
2019-Jul-18 08:30N 66°05' E 006°11'917.5
2019-Jul-18 07:59N 65°56' E 006°10'917.5
2019-Jul-18 07:30N 65°48' E 006°09'917.7
2019-Jul-18 07:00N 65°39' E 006°08'1117.8
2019-Jul-18 06:23N 65°28' E 006°07'818.1
2019-Jul-18 05:58N 65°20' E 006°06'1018.0
2019-Jul-18 05:25N 65°11' E 006°05'717.9
2019-Jul-18 05:00N 65°03' E 006°04'918.0
2019-Jul-18 04:29N 64°54' E 006°03'1018.0
2019-Jul-18 03:57N 64°44' E 006°03'818.2
2019-Jul-18 03:31N 64°36' E 006°02'918.2
2019-Jul-18 02:59N 64°27' E 006°01'918.4
2019-Jul-18 02:30N 64°18' E 005°60'918.3
2019-Jul-18 01:59N 64°08' E 005°59'918.5
2019-Jul-18 01:30N 63°59' E 005°58'918.5
2019-Jul-18 01:00N 63°50' E 005°57'918.4
2019-Jul-18 00:30N 63°41' E 005°56'918.2
2019-Jul-18 00:00N 63°32' E 005°55'918.1
2019-Jul-17 23:30N 63°23' E 005°52'918.0
2019-Jul-17 23:00N 63°14' E 005°49'918.2
2019-Jul-17 22:31N 63°05' E 005°47'918.1
2019-Jul-17 22:00N 62°56' E 005°44'917.8
2019-Jul-17 21:29N 62°47' E 005°41'817.5
2019-Jul-17 21:01N 62°39' E 005°39'816.3
2019-Jul-17 20:30N 62°30' E 005°42'917.9
2019-Jul-17 20:00N 62°27' E 006°00'5 9.5
2019-Jul-17 19:30N 62°28' E 006°10'0 0.9
2019-Jul-17 19:00N 62°28' E 006°09'0 0.0
2019-Jul-17 18:31N 62°28' E 006°09'0 0.0
2019-Jul-17 18:00N 62°28' E 006°09'0 0.0
2019-Jul-17 17:30N 62°28' E 006°09'0 0.0
2019-Jul-17 17:00N 62°28' E 006°09'0 0.0
2019-Jul-17 16:30N 62°28' E 006°09'0 0.0
2019-Jul-17 16:00N 62°28' E 006°09'0 0.0
2019-Jul-17 15:30N 62°28' E 006°09'0 0.0
2019-Jul-17 15:00N 62°28' E 006°09'0 0.0
2019-Jul-17 14:30N 62°28' E 006°09'0 0.0
2019-Jul-17 14:00N 62°28' E 006°09'0 0.0
2019-Jul-17 13:30N 62°28' E 006°09'0 0.0
2019-Jul-17 13:00N 62°28' E 006°09'0 0.0
2019-Jul-17 12:30N 62°28' E 006°09'0 0.0
2019-Jul-17 12:00N 62°28' E 006°09'0 0.0
2019-Jul-17 11:30N 62°28' E 006°09'0 0.0
2019-Jul-17 11:00N 62°28' E 006°09'0 0.0
2019-Jul-17 10:30N 62°28' E 006°09'0 0.0
2019-Jul-17 10:00N 62°28' E 006°09'0 0.0
2019-Jul-17 09:30N 62°28' E 006°09'0 0.0
2019-Jul-17 09:00N 62°28' E 006°09'0 0.0
2019-Jul-17 08:30N 62°28' E 006°09'0 0.0
2019-Jul-17 08:00N 62°28' E 006°09'0 0.0
2019-Jul-17 07:30N 62°28' E 006°09'0 0.7
2019-Jul-17 07:00N 62°28' E 006°09'3 5.8
2019-Jul-17 06:30N 62°27' E 006°04'612.6
2019-Jul-17 06:00N 62°28' E 005°50'715.2
2019-Jul-17 05:30N 62°32' E 005°36'816.2
2019-Jul-17 05:00N 62°29' E 005°19'816.4
2019-Jul-17 04:30N 62°26' E 005°03'816.7
2019-Jul-17 04:00N 62°22' E 004°46'916.9
2019-Jul-17 03:30N 62°16' E 004°34'917.0
2019-Jul-17 03:00N 62°09' E 004°23'816.7
2019-Jul-17 02:30N 62°02' E 004°14'816.6
2019-Jul-17 02:00N 61°54' E 004°11'917.2
2019-Jul-17 01:30N 61°45' E 004°11'917.4
2019-Jul-17 00:59N 61°37' E 004°10'917.7
2019-Jul-17 00:30N 61°28' E 004°09'917.6
2019-Jul-17 00:00N 61°19' E 004°09'917.6
2019-Jul-16 23:30N 61°10' E 004°08'917.6
2019-Jul-16 23:00N 61°02' E 004°08'917.3
2019-Jul-16 22:30N 60°53' E 004°08'917.3
2019-Jul-16 22:00N 60°44' E 004°08'917.7
2019-Jul-16 21:30N 60°35' E 004°08'918.1
2019-Jul-16 21:00N 60°26' E 004°09'917.8
2019-Jul-16 20:30N 60°18' E 004°10'917.8
2019-Jul-16 20:00N 60°09' E 004°11'918.1
2019-Jul-16 19:30N 59°60' E 004°11'918.3
2019-Jul-16 19:00N 59°50' E 004°11'918.3
2019-Jul-16 18:30N 59°41' E 004°11'918.3
2019-Jul-16 18:00N 59°32' E 004°11'917.6
2019-Jul-16 17:30N 59°23' E 004°11'917.6
2019-Jul-16 17:00N 59°14' E 004°11'917.5
2019-Jul-16 16:30N 59°06' E 004°11'917.6
2019-Jul-16 15:59N 58°57' E 004°12'817.4
2019-Jul-16 15:30N 58°49' E 004°16'917.9
2019-Jul-16 15:00N 58°40' E 004°22'917.8
2019-Jul-16 14:30N 58°32' E 004°27'917.5
2019-Jul-16 14:00N 58°23' E 004°32'917.3
2019-Jul-16 13:28N 58°15' E 004°37'817.2
2019-Jul-16 13:00N 58°07' E 004°42'1019.4
2019-Jul-16 12:30N 57°58' E 004°47'1020.1
2019-Jul-16 12:00N 57°48' E 004°53'919.3
2019-Jul-16 11:30N 57°39' E 004°59'1019.8
2019-Jul-16 11:00N 57°29' E 005°04'1019.9
2019-Jul-16 10:30N 57°20' E 005°10'1119.9
2019-Jul-16 09:58N 57°10' E 005°15'920.0
2019-Jul-16 09:30N 57°01' E 005°20'1020.1
2019-Jul-16 09:00N 56°51' E 005°25'1020.2
2019-Jul-16 08:30N 56°41' E 005°30'1020.3
2019-Jul-16 08:00N 56°31' E 005°31'1020.3
2019-Jul-16 07:30N 56°21' E 005°32'1020.3
2019-Jul-16 06:59N 56°11' E 005°33'1020.3
2019-Jul-16 06:30N 56°01' E 005°34'1020.3
2019-Jul-16 06:00N 55°50' E 005°35'1020.3
2019-Jul-16 05:30N 55°40' E 005°36'1020.2
2019-Jul-16 05:00N 55°30' E 005°36'1020.1
2019-Jul-16 04:30N 55°20' E 005°33'1020.1
2019-Jul-16 04:00N 55°10' E 005°30'1020.2
2019-Jul-16 03:29N 55°00' E 005°28'1020.2
2019-Jul-16 02:59N 54°50' E 005°26'8219.9
2019-Jul-15 22:51N 53°31' E 004°48'513.3
2019-Jul-15 22:30N 53°27' E 004°44'1417.2
2019-Jul-15 21:42N 53°15' E 004°33'519.4
2019-Jul-15 21:25N 53°10' E 004°30'819.3
2019-Jul-15 21:00N 53°03' E 004°23'918.9
2019-Jul-15 20:30N 52°54' E 004°17'917.3
2019-Jul-15 20:00N 52°46' E 004°10'815.7
2019-Jul-15 19:30N 52°39' E 004°07'714.5
2019-Jul-15 19:00N 52°32' E 004°11'816.5
2019-Jul-15 18:30N 52°29' E 004°23'612.6
2019-Jul-15 18:01N 52°28' E 004°33'2 3.7
2019-Jul-15 17:31N 52°28' E 004°37'1 1.9
2019-Jul-15 17:00N 52°28' E 004°38'4 7.2
2019-Jul-15 16:30N 52°26' E 004°43'4 7.3
2019-Jul-15 16:00N 52°25' E 004°49'3 6.6
2019-Jul-15 15:30N 52°24' E 004°54'1 2.3
2019-Jul-15 15:00N 52°23' E 004°55'0 0.1
2019-Jul-15 14:29N 52°23' E 004°55'0 0.0
2019-Jul-15 13:59N 52°23' E 004°55'0 0.0
2019-Jul-15 13:29N 52°23' E 004°55'0 0.0
2019-Jul-15 12:59N 52°23' E 004°55'0 0.0
2019-Jul-15 12:29N 52°23' E 004°55'0 0.0
2019-Jul-15 11:59N 52°23' E 004°55'0 0.0
2019-Jul-15 11:29N 52°23' E 004°55'0 0.0
2019-Jul-15 10:59N 52°23' E 004°55'0 0.0
2019-Jul-15 10:29N 52°23' E 004°55'0 0.0
2019-Jul-15 09:59N 52°23' E 004°55'0 0.0
2019-Jul-15 09:29N 52°23' E 004°55'0 0.0
2019-Jul-15 08:59N 52°23' E 004°55'0 0.0
2019-Jul-15 08:29N 52°23' E 004°55'0 0.0
2019-Jul-15 07:59N 52°23' E 004°55'0 0.0
2019-Jul-15 07:29N 52°23' E 004°55'0 0.0
2019-Jul-15 06:59N 52°23' E 004°55'0 0.0
2019-Jul-15 06:29N 52°23' E 004°55'0 0.0
2019-Jul-15 05:59N 52°23' E 004°55'0 0.0
2019-Jul-15 05:29N 52°23' E 004°55'0 0.0
2019-Jul-15 04:59N 52°23' E 004°55'0 0.0
2019-Jul-15 04:29N 52°23' E 004°55'0 0.2
2019-Jul-15 04:01N 52°23' E 004°55'0 0.1
2019-Jul-15 03:31N 52°23' E 004°55'2 4.9
2019-Jul-15 03:01N 52°25' E 004°52'3 5.9
2019-Jul-15 02:31N 52°25' E 004°48'4 7.2
2019-Jul-15 02:01N 52°26' E 004°42'3 6.8
2019-Jul-15 01:30N 52°28' E 004°37'0 0.6
2019-Jul-15 01:01N 52°28' E 004°37'2 3.9
2019-Jul-15 00:30N 52°28' E 004°33'510.9
2019-Jul-15 00:00N 52°29' E 004°24'816.0
2019-Jul-14 23:30N 52°29' E 004°11'816.8
2019-Jul-14 23:00N 52°36' E 004°04'1320.7
2019-Jul-14 22:24N 52°48' E 003°57'821.0
2019-Jul-14 22:00N 52°56' E 003°60'1121.2
2019-Jul-14 21:30N 53°04' E 004°12'1121.6
2019-Jul-14 21:00N 53°12' E 004°24'1121.7
2019-Jul-14 20:30N 53°22' E 004°30'1221.4
2019-Jul-14 19:58N 53°33' E 004°37'1121.9
2019-Jul-14 19:27N 53°43' E 004°43'1822.5
2019-Jul-14 18:39N 53°60' E 004°56'1022.4
2019-Jul-14 18:13N 54°09' E 005°02'622.3
2019-Jul-14 17:57N 54°14' E 005°08'1322.4
2019-Jul-14 17:22N 54°24' E 005°20'822.4
2019-Jul-14 16:59N 54°32' E 005°28'1122.6
2019-Jul-14 16:30N 54°41' E 005°38'1020.9
2019-Jul-14 16:00N 54°50' E 005°46'1120.7
2019-Jul-14 15:30N 54°60' E 005°55'1020.8
2019-Jul-14 15:00N 55°09' E 006°02'1020.7
2019-Jul-14 14:30N 55°18' E 006°10'1020.6
2019-Jul-14 13:59N 55°28' E 006°19'1020.6
2019-Jul-14 13:30N 55°36' E 006°27'1020.6
2019-Jul-14 13:00N 55°46' E 006°36'1020.6
2019-Jul-14 12:30N 55°55' E 006°44'1020.6
2019-Jul-14 12:00N 56°04' E 006°52'1020.5
2019-Jul-14 11:30N 56°13' E 006°59'1120.6
2019-Jul-14 11:00N 56°22' E 007°10'1020.7
2019-Jul-14 10:29N 56°31' E 007°19'1020.8
2019-Jul-14 09:59N 56°40' E 007°27'1020.9
2019-Jul-14 09:30N 56°49' E 007°37'1021.1
2019-Jul-14 09:00N 56°58' E 007°47'1020.8
2019-Jul-14 08:30N 57°07' E 007°56'1020.1
2019-Jul-14 08:00N 57°15' E 008°08'1020.1
2019-Jul-14 07:30N 57°22' E 008°21'1020.5
2019-Jul-14 07:00N 57°27' E 008°37'1020.3
2019-Jul-14 06:30N 57°33' E 008°54'1020.4
2019-Jul-14 06:00N 57°38' E 009°10'1020.3
2019-Jul-14 05:30N 57°43' E 009°26'1020.4
2019-Jul-14 05:00N 57°47' E 009°44'1020.4
2019-Jul-14 04:30N 57°51' E 010°01'1020.8
2019-Jul-14 04:00N 57°51' E 010°21'1020.3
2019-Jul-14 03:30N 57°51' E 010°40'1019.0
2019-Jul-14 03:00N 57°46' E 010°55'1020.1
2019-Jul-14 02:30N 57°39' E 011°08'1020.5
2019-Jul-14 02:00N 57°32' E 011°23'1020.3
2019-Jul-14 01:30N 57°23' E 011°32'1121.1
2019-Jul-14 01:00N 57°13' E 011°38'1020.5
2019-Jul-14 00:30N 57°03' E 011°45'1121.2
2019-Jul-14 00:00N 56°53' E 011°50'1020.1
2019-Jul-13 23:30N 56°44' E 011°57'1020.0
2019-Jul-13 23:00N 56°34' E 012°00'816.3
2019-Jul-13 22:30N 56°26' E 012°01'1019.2
2019-Jul-13 22:00N 56°17' E 012°09'1020.2
2019-Jul-13 21:30N 56°12' E 012°24'1020.1
2019-Jul-13 21:01N 56°05' E 012°37'816.8
2019-Jul-13 20:31N 55°57' E 012°43'816.5
2019-Jul-13 20:00N 55°49' E 012°44'713.4
2019-Jul-13 19:30N 55°43' E 012°38'1 2.9
2019-Jul-13 19:00N 55°42' E 012°36'0 0.0
2019-Jul-13 18:30N 55°42' E 012°36'0 0.0
2019-Jul-13 18:00N 55°42' E 012°36'0 0.0
2019-Jul-13 17:30N 55°42' E 012°36'0 0.0
2019-Jul-13 17:00N 55°42' E 012°36'0 0.0
2019-Jul-13 16:30N 55°42' E 012°36'0 0.0
2019-Jul-13 16:00N 55°42' E 012°36'0 0.0
2019-Jul-13 15:30N 55°42' E 012°36'0 0.0
2019-Jul-13 15:00N 55°42' E 012°36'0 0.0
2019-Jul-13 14:30N 55°42' E 012°36'0 0.0
2019-Jul-13 14:00N 55°42' E 012°36'0 0.0
2019-Jul-13 13:30N 55°42' E 012°36'0 0.0
2019-Jul-13 13:00N 55°42' E 012°36'0 0.0
2019-Jul-13 12:30N 55°42' E 012°36'0 0.0
2019-Jul-13 12:00N 55°42' E 012°36'0 0.0
2019-Jul-13 11:30N 55°42' E 012°36'0 0.0
2019-Jul-13 11:00N 55°42' E 012°36'0 0.0
2019-Jul-13 10:30N 55°42' E 012°36'0 0.0
2019-Jul-13 10:00N 55°42' E 012°36'0 0.0
2019-Jul-13 09:30N 55°42' E 012°36'0 0.0
2019-Jul-13 09:00N 55°42' E 012°36'0 0.0
2019-Jul-13 08:30N 55°42' E 012°36'0 0.0
2019-Jul-13 08:00N 55°42' E 012°36'0 0.0
2019-Jul-13 07:30N 55°42' E 012°36'0 0.0
2019-Jul-13 07:00N 55°42' E 012°36'0 0.0
2019-Jul-13 06:30N 55°42' E 012°36'0 0.0
2019-Jul-13 06:00N 55°42' E 012°36'0 0.0
2019-Jul-13 05:30N 55°42' E 012°36'0 0.8
2019-Jul-13 05:00N 55°42' E 012°36'5 9.5
2019-Jul-13 04:31N 55°46' E 012°42'611.4
2019-Jul-13 04:01N 55°52' E 012°41'612.6
2019-Jul-13 03:30N 55°58' E 012°40'714.1
2019-Jul-13 03:00N 56°05' E 012°36'714.2
2019-Jul-13 02:30N 56°09' E 012°25'714.9
2019-Jul-13 02:01N 56°13' E 012°15'815.3
2019-Jul-13 01:30N 56°18' E 012°04'815.2
2019-Jul-13 01:00N 56°22' E 011°52'715.1
2019-Jul-13 00:31N 56°21' E 011°39'715.0
2019-Jul-13 00:01N 56°18' E 011°26'815.7
2019-Jul-12 23:30N 56°12' E 011°18'815.6
2019-Jul-12 23:00N 56°06' E 011°10'1418.0
2019-Jul-12 22:12N 55°54' E 010°56'1717.0
2019-Jul-12 21:13N 55°38' E 010°49'418.2
2019-Jul-12 20:59N 55°33' E 010°52'817.5
2019-Jul-12 20:31N 55°26' E 010°59'917.4
2019-Jul-12 20:00N 55°18' E 011°03'816.8
2019-Jul-12 19:30N 55°09' E 011°04'918.1
2019-Jul-12 19:01N 55°00' E 011°02'918.1
2019-Jul-12 18:31N 54°53' E 010°54'918.4
2019-Jul-12 18:01N 54°44' E 010°52'917.5
2019-Jul-12 17:31N 54°38' E 011°04'918.9
2019-Jul-12 17:01N 54°34' E 011°19'1121.0
2019-Jul-12 16:31N 54°30' E 011°35'1019.9
2019-Jul-12 16:00N 54°27' E 011°52'1020.1
2019-Jul-12 15:31N 54°26' E 012°09'1019.1
2019-Jul-12 15:00N 54°35' E 012°16'1220.1
2019-Jul-12 14:24N 54°43' E 012°31'820.3
2019-Jul-12 14:00N 54°48' E 012°43'1220.4
2019-Jul-12 13:24N 54°51' E 013°03'1621.2
2019-Jul-12 12:39N 54°56' E 013°29'319.8
2019-Jul-12 12:29N 54°57' E 013°35'919.7
2019-Jul-12 12:00N 55°01' E 013°50'1120.7
2019-Jul-12 11:29N 55°06' E 014°07'1020.9
2019-Jul-12 11:00N 55°14' E 014°17'1120.8
2019-Jul-12 10:29N 55°23' E 014°28'1020.3
2019-Jul-12 10:01N 55°28' E 014°41'1020.6
2019-Jul-12 09:31N 55°33' E 014°58'1020.9
2019-Jul-12 09:01N 55°37' E 015°14'1020.8
2019-Jul-12 08:31N 55°43' E 015°30'1120.7
2019-Jul-12 07:59N 55°49' E 015°47'1420.8
2019-Jul-12 07:19N 55°56' E 016°08'720.9
2019-Jul-12 07:00N 55°59' E 016°18'6520.0
2019-Jul-12 03:47N 56°52' E 017°25'921.5
2019-Jul-12 03:22N 57°00' E 017°30'921.4
2019-Jul-12 02:58N 57°09' E 017°34'1521.5
2019-Jul-12 02:15N 57°24' E 017°36'3521.5
2019-Jul-12 00:37N 57°55' E 018°06'421.6
2019-Jul-12 00:25N 57°58' E 018°10'921.6
2019-Jul-12 00:00N 58°07' E 018°18'1121.6
2019-Jul-11 23:30N 58°16' E 018°28'2821.6
2019-Jul-11 22:14N 58°40' E 018°52'3320.2
2019-Jul-11 20:35N 59°13' E 019°07'220.1
2019-Jul-11 20:29N 59°14' E 019°04'611.8
2019-Jul-11 20:00N 59°16' E 018°54'510.5
2019-Jul-11 19:30N 59°20' E 018°47'2 3.4
2019-Jul-11 18:58N 59°22' E 018°46'4 7.8
2019-Jul-11 18:30N 59°23' E 018°39'5 9.1
2019-Jul-11 18:00N 59°25' E 018°31'3 7.0
2019-Jul-11 17:31N 59°25' E 018°24'4 7.0
2019-Jul-11 17:00N 59°22' E 018°25'4 8.9
2019-Jul-11 16:30N 59°22' E 018°16'4 8.5
2019-Jul-11 16:00N 59°21' E 018°08'0 0.5
2019-Jul-11 15:30N 59°21' E 018°08'0 0.0
2019-Jul-11 14:57N 59°21' E 018°08'0 0.0
2019-Jul-11 14:30N 59°21' E 018°08'0 0.0
2019-Jul-11 14:00N 59°21' E 018°08'0 0.0
2019-Jul-11 13:30N 59°21' E 018°08'0 0.0
2019-Jul-11 13:00N 59°21' E 018°08'0 0.0
2019-Jul-11 12:30N 59°21' E 018°08'0 0.0
2019-Jul-11 12:00N 59°21' E 018°08'0 0.0
2019-Jul-11 11:30N 59°21' E 018°08'0 0.0
2019-Jul-11 11:00N 59°21' E 018°08'0 0.0
2019-Jul-11 10:30N 59°21' E 018°08'0 0.0
2019-Jul-11 10:00N 59°21' E 018°08'0 0.0
2019-Jul-11 09:30N 59°21' E 018°08'0 0.0
2019-Jul-11 09:00N 59°21' E 018°08'0 0.0
2019-Jul-11 08:30N 59°21' E 018°08'0 0.0
2019-Jul-11 08:00N 59°21' E 018°08'0 0.0
2019-Jul-11 07:30N 59°21' E 018°08'0 0.0
2019-Jul-11 07:00N 59°21' E 018°08'0 0.0
2019-Jul-11 06:30N 59°21' E 018°08'0 0.0
2019-Jul-11 06:00N 59°21' E 018°08'1 2.8
2019-Jul-11 05:30N 59°20' E 018°10'5 9.9
2019-Jul-11 05:00N 59°23' E 018°18'4 8.6
2019-Jul-11 04:30N 59°22' E 018°27'4 8.7
2019-Jul-11 04:00N 59°27' E 018°25'611.5
2019-Jul-11 03:30N 59°23' E 018°34'5 9.6
2019-Jul-11 03:00N 59°22' E 018°43'713.3
2019-Jul-11 02:30N 59°18' E 018°53'4 8.7
2019-Jul-11 02:01N 59°16' E 019°00'611.8
2019-Jul-11 01:30N 59°12' E 019°09'714.7
2019-Jul-11 01:00N 59°11' E 019°23'816.6
2019-Jul-11 00:30N 59°12' E 019°40'1317.9
2019-Jul-10 23:47N 59°15' E 020°04'517.8
2019-Jul-10 23:30N 59°16' E 020°14'1317.3
2019-Jul-10 22:46N 59°16' E 020°39'1117.7
2019-Jul-10 22:09N 59°18' E 020°59'317.9
2019-Jul-10 22:00N 59°19' E 021°04'918.0
2019-Jul-10 21:31N 59°21' E 021°21'918.0
2019-Jul-10 21:00N 59°24' E 021°38'918.0
2019-Jul-10 20:31N 59°26' E 021°56'917.9
2019-Jul-10 20:00N 59°27' E 022°13'917.8
2019-Jul-10 19:31N 59°30' E 022°29'917.7
2019-Jul-10 19:01N 59°33' E 022°46'917.8
2019-Jul-10 18:31N 59°36' E 023°03'917.9
2019-Jul-10 18:01N 59°38' E 023°20'917.9
2019-Jul-10 17:31N 59°40' E 023°37'917.9
2019-Jul-10 17:01N 59°43' E 023°54'917.7
2019-Jul-10 16:31N 59°45' E 024°11'917.5
2019-Jul-10 16:01N 59°48' E 024°27'816.3
2019-Jul-10 15:31N 59°53' E 024°40'917.3
2019-Jul-10 15:00N 59°59' E 024°53'510.9
2019-Jul-10 14:30N 60°04' E 024°53'510.0
2019-Jul-10 14:00N 60°09' E 024°55'0 0.0
2019-Jul-10 13:29N 60°09' E 024°55'0 0.0
2019-Jul-10 12:59N 60°09' E 024°55'0 0.0
2019-Jul-10 12:29N 60°09' E 024°55'0 0.0
2019-Jul-10 11:59N 60°09' E 024°55'0 0.0
2019-Jul-10 11:29N 60°09' E 024°55'0 0.0
2019-Jul-10 10:59N 60°09' E 024°55'0 0.0
2019-Jul-10 10:29N 60°09' E 024°55'0 0.0
2019-Jul-10 09:59N 60°09' E 024°55'0 0.0
2019-Jul-10 09:29N 60°09' E 024°55'0 0.0
2019-Jul-10 08:59N 60°09' E 024°55'0 0.0
2019-Jul-10 08:26N 60°09' E 024°55'0 0.0
2019-Jul-10 07:59N 60°09' E 024°55'0 0.0
2019-Jul-10 07:29N 60°09' E 024°55'0 0.0
2019-Jul-10 06:59N 60°09' E 024°55'0 0.0
2019-Jul-10 06:29N 60°09' E 024°55'0 0.0
2019-Jul-10 05:59N 60°09' E 024°55'0 0.0
2019-Jul-10 05:29N 60°09' E 024°55'0 0.0
2019-Jul-10 04:59N 60°09' E 024°55'0 0.0
2019-Jul-10 04:29N 60°09' E 024°55'0 1.0
2019-Jul-10 04:01N 60°09' E 024°54'3 6.6
2019-Jul-10 03:30N 60°05' E 024°54'612.4
2019-Jul-10 03:00N 59°60' E 024°58'611.9
2019-Jul-10 02:30N 59°55' E 025°06'713.4
2019-Jul-10 02:00N 59°55' E 025°19'714.0
2019-Jul-10 01:30N 59°54' E 025°33'2015.5
2019-Jul-10 00:13N 59°59' E 026°12'315.8
2019-Jul-10 00:00N 59°59' E 026°18'815.1
2019-Jul-09 23:30N 60°01' E 026°33'715.0
2019-Jul-09 23:00N 60°00' E 026°48'815.4
2019-Jul-09 22:30N 59°60' E 027°03'816.5
2019-Jul-09 22:01N 60°04' E 027°17'918.4
2019-Jul-09 21:30N 60°09' E 027°33'917.5
2019-Jul-09 21:00N 60°12' E 027°50'918.3
2019-Jul-09 20:30N 60°09' E 028°07'917.4
2019-Jul-09 20:01N 60°05' E 028°23'917.8
2019-Jul-09 19:30N 60°03' E 028°40'918.2
2019-Jul-09 19:00N 60°02' E 028°58'2414.7
2019-Jul-09 17:23N 59°59' E 029°45'410.0
2019-Jul-09 17:00N 59°57' E 029°52'510.2
2019-Jul-09 16:30N 59°56' E 030°02'5 9.5
2019-Jul-09 16:00N 59°57' E 030°11'0 1.0
2019-Jul-09 15:29N 59°57' E 030°12'0 0.0
2019-Jul-09 14:59N 59°57' E 030°12'0 0.0
2019-Jul-09 14:29N 59°57' E 030°12'0 0.0
2019-Jul-09 13:59N 59°57' E 030°12'0 0.0
2019-Jul-09 13:29N 59°57' E 030°12'0 0.0
2019-Jul-09 12:59N 59°57' E 030°12'0 0.0
2019-Jul-09 12:29N 59°57' E 030°12'0 0.0
2019-Jul-09 11:59N 59°57' E 030°12'0 0.0
2019-Jul-09 11:29N 59°57' E 030°12'0 0.0
2019-Jul-09 10:59N 59°57' E 030°12'0 0.0
2019-Jul-09 10:29N 59°57' E 030°12'0 0.0
2019-Jul-09 09:56N 59°57' E 030°12'0 0.0
2019-Jul-09 09:29N 59°57' E 030°12'0 0.0
2019-Jul-09 08:59N 59°57' E 030°12'0 0.0
2019-Jul-09 08:29N 59°57' E 030°12'0 0.0
2019-Jul-09 07:59N 59°57' E 030°12'0 0.0
2019-Jul-09 07:29N 59°57' E 030°12'0 0.0
2019-Jul-09 06:59N 59°57' E 030°12'0 0.0
2019-Jul-09 06:29N 59°57' E 030°12'0 0.0
2019-Jul-09 05:59N 59°57' E 030°12'0 0.0
2019-Jul-09 05:29N 59°57' E 030°12'0 0.0
2019-Jul-09 04:59N 59°57' E 030°12'0 0.0
2019-Jul-09 04:29N 59°57' E 030°12'0 0.0
2019-Jul-09 03:59N 59°57' E 030°12'0 0.0
2019-Jul-09 03:29N 59°57' E 030°12'0 0.0
2019-Jul-09 02:59N 59°57' E 030°12'0 0.0
2019-Jul-09 02:29N 59°57' E 030°12'0 0.0
2019-Jul-09 01:59N 59°57' E 030°12'0 0.0
2019-Jul-09 01:29N 59°57' E 030°12'0 0.0
2019-Jul-09 00:59N 59°57' E 030°12'0 0.0
2019-Jul-09 00:29N 59°57' E 030°12'0 0.0
2019-Jul-08 23:59N 59°57' E 030°12'0 0.0
2019-Jul-08 23:29N 59°57' E 030°12'0 0.0
2019-Jul-08 22:59N 59°57' E 030°12'0 0.0
2019-Jul-08 22:29N 59°57' E 030°12'0 0.0
2019-Jul-08 21:59N 59°57' E 030°12'0 0.0
2019-Jul-08 21:29N 59°57' E 030°12'0 0.0
2019-Jul-08 20:59N 59°57' E 030°12'0 0.0
2019-Jul-08 20:29N 59°57' E 030°12'0 0.0
2019-Jul-08 19:59N 59°57' E 030°12'0 0.0
2019-Jul-08 19:29N 59°57' E 030°12'0 0.0
2019-Jul-08 18:59N 59°57' E 030°12'0 0.0
2019-Jul-08 18:29N 59°57' E 030°12'0 0.0
2019-Jul-08 17:59N 59°57' E 030°12'0 0.0
2019-Jul-08 17:29N 59°57' E 030°12'0 0.0
2019-Jul-08 16:59N 59°57' E 030°12'0 0.0
2019-Jul-08 16:29N 59°57' E 030°12'0 0.0
2019-Jul-08 15:59N 59°57' E 030°12'0 0.0
2019-Jul-08 15:29N 59°57' E 030°12'0 0.0
2019-Jul-08 14:59N 59°57' E 030°12'0 0.0
2019-Jul-08 14:29N 59°57' E 030°12'0 0.0
2019-Jul-08 13:59N 59°57' E 030°12'0 0.0
2019-Jul-08 13:29N 59°57' E 030°12'0 0.0
2019-Jul-08 12:59N 59°57' E 030°12'0 0.0
2019-Jul-08 12:29N 59°57' E 030°12'0 0.0
2019-Jul-08 11:59N 59°57' E 030°12'0 0.0
2019-Jul-08 11:29N 59°57' E 030°12'0 0.0
2019-Jul-08 10:59N 59°57' E 030°12'0 0.0
2019-Jul-08 10:29N 59°57' E 030°12'  

Dump ship's entire track history